Find Eutelsat W4

NORAD ID: 26369 Int'l Des: 2000-028 Owner: EUTEL Country: I-EUT operational
HEOCIRCULAR

現在のビュー

3D地球を読み込み中...

About Eutelsat W4

Eutelsat W4 (NORAD 26369) is a satellite launched May 24, 2000 by EUTEL of I-EUT. It operates in HEO, CIRCULAR orbit with a mass of 3190.00 kg.

次回通過

Passes for default location (London). Set your location on the main map for personalized predictions.

高度履歴

Loading altitude history...

軌道要素

1 26369U 00028A 26195.20683080 -.00000076 00000-0 00000+0 0 9999
2 26369 8.6522 61.6104 0008337 270.1071 243.7684 0.98469174 95396
Epoch: Jul 14, 2026 • Age: 11 hours

現在のステータス

高度 36275.9 km
遠地点 / 近地点 N/A
速度 3.06 km/s
衛星直下点 -5.91°S, 153.62°W
打ち上げ日 May 24, 2000
運用期間 26.1 years
タイプ other

技術仕様

分類 Payload
質量 3190.00 kg
乾燥質量 1285.00 kg
総質量 3190.00 kg
長さ 4.60 m
直径 2.50 m
スパン 29.00 m
形状 Box + 2 Pan
製造者 ALC
バスタイプ Spacebus 3000B2
フェーズステータス Renamed
所有者/国 EUTEL/I-EUT

Most Searched